Weather History for Huntsville, AL

Change the Weather History Date:

Monday, November 19, 2012

  Actual Average Record
Temperature  
Mean Temperature 51 °F 52 °F  
Max Temperature 67 °F 62 °F 81 °F (1942)
Min Temperature 35 °F 41 °F 21 °F (1951)
Degree Days  
Heating Degree Days 14 14  
Month to date heating degree days 279 204  
Since 1 July heating degree days 459 355  
Cooling Degree Days 0 0  
Month to date cooling degree days 0 7  
Year to date cooling degree days 2094 1947  
Growing Degree Days 2 (Base 50)    
Moisture  
Dew Point 38 °F    
Average Humidity 65    
Maximum Humidity 89    
Minimum Humidity 40    
Precipitation  
Precipitation 0.00 in 0.18 in 2.62 in (1948)
Month to date precipitation 1.82 2.89  
Year to date precipitation 45.28 46.52  
Snow  
Snow 0.00 in - - ()
Month to date snowfall 0.0  
Since 1 July snowfall 0.0  
Since 1 September snowfall 0.0  
Snow Depth 0.00 in    
Sea Level Pressure  
Sea Level Pressure 30.27 in    
Wind  
Wind Speed 0 mph (NE)    
Max Wind Speed 6 mph    
Max Gust Speed 8 mph    
Visibility 10 miles    
Events      
T = Trace of Precipitation, MM = Missing Value Source: NWS Daily Summary

Daily Weather History Graph

Daily Weather History Graph

Search for Another Location

Airport:

Trip Planner

Search our weather history database for the weather conditions in past years. The results will help you decide how hot, cold, wet, or windy it might be!

Date:

Astronomy

Nov. 19, 2012 Rise Set
Actual Time 6:25 AM CST 4:39 PM CST
Civil Twilight 5:58 AM CST 5:06 PM CST
Nautical Twilight 5:27 AM CST 5:37 PM CST
Astronomical Twilight 4:57 AM CST 6:07 PM CST
Moon 11:33 AM CST (11/19) 10:59 PM CST (11/19)
Length of Visible Light 11h 08m
Length of Day
10h 14m
Waxing Crescent, 41% of the Moon is Illuminated
Nov 19
Waxing Crescent
Nov 20
First Quarter
Nov 28
Full
Dec 6
Last Quarter
Dec 13
New

Hourly Weather History & Observations

Time (CST) Temp. Windchill Dew Point Humidity Pressure Visibility Wind Dir Wind Speed Gust Speed Precip Events Conditions
12:53 AM 39.0 °F - 34.0 °F 82% 30.32 in 10.0 mi Calm Calm - N/A   Clear
1:53 AM 37.9 °F - 33.1 °F 83% 30.32 in 10.0 mi Calm Calm - N/A   Clear
2:53 AM 37.0 °F - 32.0 °F 82% 30.32 in 10.0 mi Calm Calm - N/A   Partly Cloudy
3:53 AM 37.9 °F 34.4 °F 33.1 °F 83% 30.30 in 10.0 mi East 4.6 mph - N/A   Partly Cloudy
4:53 AM 36.0 °F - 32.0 °F 86% 30.32 in 10.0 mi Calm Calm - N/A   Scattered Clouds
5:53 AM 37.0 °F - 32.0 °F 82% 30.32 in 10.0 mi Calm Calm - N/A   Scattered Clouds
6:53 AM 39.9 °F - 34.0 °F 79% 30.33 in 10.0 mi Calm Calm - N/A   Mostly Cloudy
7:53 AM 45.0 °F - 37.0 °F 74% 30.33 in 10.0 mi Calm Calm - N/A   Mostly Cloudy
8:53 AM 51.1 °F - 37.9 °F 61% 30.35 in 10.0 mi Calm Calm - N/A   Mostly Cloudy
9:53 AM 55.9 °F - 37.9 °F 51% 30.35 in 10.0 mi Calm Calm - N/A   Mostly Cloudy
10:53 AM 62.1 °F - 39.0 °F 43% 30.32 in 10.0 mi Calm Calm - N/A   Scattered Clouds
11:53 AM 64.0 °F - 41.0 °F 43% 30.29 in 10.0 mi Calm Calm - N/A   Scattered Clouds
12:53 PM 64.9 °F - 42.1 °F 43% 30.27 in 10.0 mi Calm Calm - N/A   Scattered Clouds
1:53 PM 66.9 °F - 41.0 °F 39% 30.25 in 10.0 mi Calm Calm - N/A   Scattered Clouds
2:53 PM 66.0 °F - 41.0 °F 40% 30.24 in 10.0 mi Calm Calm - N/A   Scattered Clouds
3:53 PM 64.9 °F - 41.0 °F 42% 30.21 in 10.0 mi Calm Calm - N/A   Scattered Clouds
4:53 PM 59.0 °F - 41.0 °F 51% 30.21 in 10.0 mi Calm Calm - N/A   Partly Cloudy
5:53 PM 54.0 °F - 41.0 °F 62% 30.22 in 10.0 mi NNW 3.5 mph - N/A   Clear
6:53 PM 52.0 °F - 41.0 °F 66% 30.22 in 10.0 mi Calm Calm - N/A   Clear
7:53 PM 46.9 °F - 39.9 °F 77% 30.23 in 10.0 mi Calm Calm - N/A   Clear
8:53 PM 46.9 °F - 39.9 °F 77% 30.22 in 10.0 mi Calm Calm - N/A   Partly Cloudy
9:53 PM 44.1 °F - 39.0 °F 82% 30.22 in 10.0 mi Calm Calm - N/A   Mostly Cloudy
10:53 PM 48.0 °F - 42.1 °F 80% 30.20 in 10.0 mi Calm Calm - N/A   Mostly Cloudy
11:53 PM 48.0 °F - 42.1 °F 80% 30.20 in 10.0 mi Calm Calm - N/A   Mostly Cloudy